DW0360 Weather Reports


Display with metric or nautical units.
time (UTC)temp
F
wind
direction
speed
MPH
gust
MPH
rain 1hr
in
rain 24hr
in
rain mn
in
humidity
%
barometer
mb
20210306013109 56 355 2.0 5.0 0.00 0.00 0.00 70 1018.5
20210306011638 56 24 3.0 6.0 0.00 0.00 0.00 70 1018.3
20210306010147 56 28 2.0 6.0 0.00 0.00 0.00 70 1017.9
20210306004625 56 298 3.0 8.0 0.00 0.00 0.00 70 1017.7
20210306003325 56 355 3.0 7.0 0.00 0.00 0.00 70 1017.4
20210306001648 56 32 2.0 6.0 0.00 0.00 0.00 71 1017.0
20210306000136 56 51 2.0 6.0 0.00 0.00 0.00 73 1016.4
20210305234620 55 96 4.0 9.0 0.00 0.00 0.00 77 1016.2
20210305233056 55 72 3.0 9.0 0.00 0.00 0.00 79 1016.3
20210305231612 55 21 4.0 10.0 0.00 0.00 0.00 80 1016.1
20210305230100 55 109 5.0 11.0 0.00 0.00 0.00 80 1015.8
20210305224622 56 5 5.0 11.0 0.00 0.00 0.00 81 1015.5
20210305223031 56 37 4.0 11.0 0.00 0.00 0.00 81 1015.3
20210305221554 56 74 4.0 9.0 0.00 0.00 0.00 80 1015.0
20210305220048 57 11 5.0 13.0 0.00 0.00 0.00 80 1014.7
20210305214531 60 36 5.0 13.0 0.00 0.00 0.00 76 1014.1
20210305213118 62 82 6.0 13.0 0.00 0.00 0.00 73 1013.9
20210305211606 63 81 4.0 16.0 0.00 0.00 0.00 70 1013.4
20210305210033 65 82 5.0 12.0 0.00 0.00 0.00 68 1012.9
20210305204531 64 53 5.0 12.0 0.00 0.00 0.00 69 1012.7
20210305203028 64 90 7.0 18.0 0.00 0.00 0.00 69 1012.4
20210305201537 63 45 4.0 12.0 0.00 0.00 0.00 69 1012.3
20210305200347 64 67 5.0 12.0 0.00 0.00 0.00 68 1012.3
20210305194521 64 44 4.0 11.0 0.00 0.00 0.00 69 1012.4
20210305193148 64 83 7.0 16.0 0.00 0.00 0.00 68 1012.1
20210305191543 65 78 6.0 14.0 0.00 0.00 0.00 64 1012.5
20210305190045 67 350 2.0 8.0 0.00 0.00 0.00 58 1012.5
20210305184528 68 81 3.0 7.0 0.00 0.00 0.00 58 1012.2
20210305183222 67 88 1.0 4.0 0.00 0.00 0.00 61 1012.4
20210305181647 66 154 2.0 7.0 0.00 0.00 0.00 63 1012.2
20210305180234 65 148 2.0 6.0 0.00 0.00 0.00 65 1012.2
20210305174658 65 81 2.0 7.0 0.00 0.00 0.00 66 1012.3
20210305173128 65 155 3.0 9.0 0.00 0.00 0.00 68 1012.2
20210305171700 64 141 3.0 9.0 0.00 0.00 0.00 69 1012.1
20210305170203 63 113 2.0 9.0 0.00 0.00 0.00 72 1012.1
20210305164559 61 144 2.0 7.0 0.00 0.00 0.00 74 1012.3
20210305163857 61 80 1.0 6.0 0.00 0.00 0.00 76 1012.6
20210305161631 60 136 1.0 7.0 0.00 0.00 0.00 77 1012.5
20210305160132 59 125 3.0 8.0 0.00 0.00 0.00 77 1012.3
20210305154612 59 159 4.0 10.0 0.00 0.00 0.00 79 1012.2
20210305153200 58 111 4.0 10.0 0.00 0.00 0.00 80 1011.9
20210305151537 57 126 5.0 8.0 0.00 0.00 0.00 81 1012.0
20210305150137 57 144 3.0 6.0 0.00 0.00 0.00 81 1012.0
20210305144558 56 136 2.0 7.0 0.00 0.00 0.00 81 1011.9
20210305143038 56 164 1.0 7.0 0.00 0.00 0.00 81 1011.9
20210305141601 56 201 3.0 8.0 0.00 0.00 0.00 81 1011.1
20210305140315 55 158 3.0 6.0 0.00 0.00 0.00 81 1011.2
20210305134551 55 113 3.0 5.0 0.00 0.00 0.00 80 1011.3
20210305133049 55 132 1.0 4.0 0.00 0.00 0.00 80 1011.3
20210305131534 55 157 0.0 7.0 0.00 0.00 0.00 79 1011.2
20210305130237 55 154 3.0 9.0 0.00 0.00 0.00 79 1010.9
20210305124526 55 98 2.0 4.0 0.00 0.00 0.00 78 1011.0
20210305123340 55 97 1.0 7.0 0.00 0.00 0.00 77 1011.0
20210305121532 55 142 3.0 8.0 0.00 0.00 0.00 76 1010.9
20210305120047 56 150 2.0 8.0 0.00 0.00 0.00 77 1010.8
20210305114534 56 147 1.0 5.0 0.00 0.00 0.00 78 1010.9
20210305113119 56 168 4.0 9.0 0.00 0.00 0.00 77 1010.9
20210305111513 55 150 2.0 7.0 0.00 0.00 0.00 74 1011.1
20210305110138 55 159 2.0 7.0 0.00 0.00 0.00 73 1011.0
20210305104625 56 156 4.0 8.0 0.00 0.00 0.00 71 1010.9
20210305103139 56 148 4.0 8.0 0.00 0.00 0.00 70 1011.0
20210305101618 57 165 2.0 6.0 0.00 0.00 0.00 69 1011.0
20210305100348 57 140 3.0 8.0 0.00 0.00 0.00 69 1010.9
20210305095046 57 184 2.0 8.0 0.00 0.00 0.00 68 1011.0
20210305093230 57 152 1.0 8.0 0.00 0.00 0.00 68 1011.1
20210305091702 57 150 3.0 8.0 0.00 0.00 0.00 67 1011.1
20210305090158 57 121 2.0 9.0 0.00 0.00 0.00 66 1011.1
20210305084605 58 115 2.0 8.0 0.00 0.00 0.00 64 1011.1
20210305083140 58 132 2.0 8.0 0.00 0.00 0.00 63 1011.2
20210305081604 58 142 2.0 8.0 0.00 0.00 0.00 62 1011.3
20210305080121 59 172 3.0 7.0 0.00 0.00 0.00 61 1011.6
20210305074641 59 153 3.0 15.0 0.00 0.00 0.00 60 1011.8
20210305073046 59 134 4.0 9.0 0.00 0.00 0.00 59 1011.9
20210305071545 59 184 5.0 10.0 0.00 0.00 0.00 57 1012.0
20210305070146 59 169 4.0 8.0 0.00 0.00 0.00 56 1012.0
20210305064618 59 171 5.0 10.0 0.00 0.00 0.00 56 1011.8
20210305063146 59 156 3.0 5.0 0.00 0.00 0.00 55 1012.1
20210305061639 59 117 2.0 7.0 0.00 0.00 0.00 54 1012.5
20210305060039 59 150 2.0 5.0 0.00 0.00 0.00 54 1012.5
20210305054553 59 153 2.0 6.0 0.00 0.00 0.00 53 1012.7
20210305053049 59 128 2.0 6.0 0.00 0.00 0.00 53 1012.6
20210305051545 59 154 1.0 4.0 0.00 0.00 0.00 53 1012.7
20210305050038 59 163 1.0 4.0 0.00 0.00 0.00 53 1012.9
20210305044612 60 115 1.0 5.0 0.00 0.00 0.00 52 1012.9
20210305043124 60 128 2.0 4.0 0.00 0.00 0.00 51 1012.8
20210305041540 60 142 1.0 7.0 0.00 0.00 0.00 51 1012.9
20210305040403 60 131 1.0 4.0 0.00 0.00 0.00 50 1012.9
20210305033156 62 138 2.0 8.0 0.00 0.00 0.00 47 1012.7
20210305031608 62 130 3.0 8.0 0.00 0.00 0.00 47 1012.8
20210305030223 62 146 3.0 8.0 0.00 0.00 0.00 45 1013.0
20210305024603 63 122 3.0 8.0 0.00 0.00 0.00 44 1012.9
20210305023116 63 142 2.0 7.0 0.00 0.00 0.00 44 1012.9
20210305021655 63 153 3.0 10.0 0.00 0.00 0.00 44 1013.0
20210305020231 64 135 2.0 7.0 0.00 0.00 0.00 44 1012.9
20210305014604 64 167 1.0 4.0 0.00 0.00 0.00 44 1013.1